OBJECT BN (43818 NORAD) Tracking and Keplerian Element Data

This shows tracking and keplerian element data for the satellite.

Feedback or suggestion? Click here.




ElementValue
Catalog43818
NameOBJECT BN
Epoch Orbit433
Epoch Day3.80218925
Epoch Year2019
RAAN77.6592
Inclination97.7655
Eccentricity0.0014484
Argument of Perigee146.6451
Mean Anonmoly213.5685
Mean Motion14.95274592
Decay Rate7.72E-06
L11 43818U 18099BN 19003.80218925 .00000772 00000-0 75230-4 0 9996
L22 43818 97.7655 77.6592 0014484 146.6451 213.5685 14.95274592 4337

Live tracking and technical data element details for OBJECT BN (NORAD 43818). OBJECT BN can be tracked NOW for your location showing map with azimuth and elevation plus other details from your city location.

Track the satellite on the map from your city or location and see movement details for azimuth, elevation, latitude, longitude, range, height, and movement on the map or in text.







IsCatalogInMostPopularTable: catalog: 43818, numindb: 17
Update: records affected: 1



GetName: 43818 OBJECT BN

Hit Count: updated at: Thu, 17 Jan 2019 14:39:07 GMT